Pendleton, OR

2:53 AM PST on December 14, 2017 (GMT -0800)
Eastern Oreg Regional At Pendleton

Weather History for KPDT - January, 2013

Change the Weather History Date:

Friday, January 11, 2013

  Actual Average Record
Temperature  
Mean Temperature 27 °F 35 °F  
Max Temperature 30 °F 41 °F 63 °F (1953)
Min Temperature 23 °F 28 °F -11 °F (1963)
Degree Days  
Heating Degree Days 38 30  
Month to date heating degree days 365 342  
Since 1 July heating degree days 2348 2579  
Cooling Degree Days 0 0  
Month to date cooling degree days 0 0  
Year to date cooling degree days 0 0  
Moisture  
Dew Point 21 °F    
Average Humidity 75    
Maximum Humidity 92    
Minimum Humidity 58    
Precipitation  
Precipitation T in 0.05 in 0.55 in (1998)
Month to date precipitation 0.50 0.55  
Year to date precipitation 0.50 0.55  
Snow  
Snow T in 0.20 in 4.10 in (1979)
Month to date snowfall 0.1 1.7  
Year to date snowfall 0.1 1.7  
Since 1 July snowfall 1.9 9.2  
Snow Depth 0.00 in    
Sea Level Pressure  
Sea Level Pressure 30.17 in    
Wind  
Wind Speed 6 mph (WNW)    
Max Wind Speed 16 mph    
Max Gust Speed 18 mph    
Visibility 10 miles    
Events Snow    
T = Trace of Precipitation, MM = Missing Value Source: NWS Daily Summary

Daily Weather History Graph

Daily Weather History Graph

Search for Another Location

Airport or City:

Trip Planner

Search our weather history database for the weather conditions in past years. The results will help you decide how hot, cold, wet, or windy it might be!

Date:

Astronomy

Jan. 11, 2013 Rise Set
Actual Time 7:34 AM PST 4:33 PM PST
Civil Twilight 7:00 AM PST 5:06 PM PST
Nautical Twilight 6:23 AM PST 5:43 PM PST
Astronomical Twilight 5:47 AM PST 6:19 PM PST
Moon 7:08 AM PST (1/11) 5:00 PM PST (1/11)
Length of Visible Light 10h 06m
Length of Day
8h 59m
New Moon, 0% of the Moon is Illuminated
Jan 11
New Moon
Jan 18
First Quarter
Jan 26
Full
Feb 3
Last Quarter
Feb 9
New

Hourly Weather History & Observations

Time (PST) Temp. Windchill Dew Point Humidity Pressure Visibility Wind Dir Wind Speed Gust Speed Precip Events Conditions
12:53 AM 28.9 °F 21.1 °F 19.9 °F 69% 29.99 in 10.0 mi NNW 8.1 mph - N/A   Overcast
1:53 AM 28.0 °F 21.7 °F 19.9 °F 72% 30.02 in 10.0 mi NNW 5.8 mph - N/A   Overcast
2:53 AM 28.0 °F 20.8 °F 19.0 °F 69% 30.03 in 10.0 mi NW 6.9 mph - N/A   Overcast
3:53 AM 28.0 °F 20.0 °F 18.0 °F 66% 30.04 in 10.0 mi WNW 8.1 mph - N/A   Overcast
4:53 AM 28.0 °F 20.8 °F 18.0 °F 66% 30.05 in 10.0 mi WNW 6.9 mph - N/A   Overcast
5:53 AM 27.0 °F 18.7 °F 19.0 °F 72% 30.07 in 10.0 mi WNW 8.1 mph - N/A   Overcast
6:53 AM 26.1 °F 19.4 °F 19.0 °F 75% 30.10 in 10.0 mi West 5.8 mph - N/A   Overcast
7:53 AM 24.1 °F 15.2 °F 16.0 °F 71% 30.13 in 10.0 mi West 8.1 mph - N/A   Partly Cloudy
8:53 AM 27.0 °F 20.5 °F 17.1 °F 66% 30.15 in 10.0 mi West 5.8 mph - N/A   Partly Cloudy
9:53 AM 28.0 °F 20.8 °F 15.1 °F 58% 30.17 in 10.0 mi NW 6.9 mph - N/A   Overcast
10:53 AM 28.0 °F 19.3 °F 18.0 °F 66% 30.19 in 10.0 mi NW 9.2 mph - N/A   Overcast
11:53 AM 28.4 °F 19.7 °F 19.4 °F 69% 30.15 in 10.0 mi WNW 9.2 mph - N/A   Overcast
12:30 PM 27.0 °F 19.5 °F 21.0 °F 78% 30.16 in 5.0 mi NW 6.9 mph - 0.00 in Snow Light Snow
12:53 PM 27.0 °F 19.5 °F 21.9 °F 81% 30.19 in 8.0 mi NW 6.9 mph - 0.00 in   Overcast
1:23 PM 27.0 °F 18.7 °F 23.0 °F 85% 30.17 in 10.0 mi WNW 8.1 mph - N/A   Overcast
1:53 PM 27.0 °F 19.5 °F 24.1 °F 89% 30.22 in 10.0 mi NW 6.9 mph - N/A   Overcast
2:53 PM 28.0 °F - 23.0 °F 81% 30.23 in 10.0 mi Calm Calm - N/A   Overcast
3:25 PM 28.0 °F 22.8 °F 23.0 °F 81% 30.21 in 10.0 mi SSW 4.6 mph - N/A   Overcast
3:53 PM 28.0 °F 22.8 °F 23.0 °F 81% 30.25 in 10.0 mi SW 4.6 mph - N/A   Overcast
4:53 PM 28.0 °F - 23.0 °F 81% 30.25 in 10.0 mi Calm Calm - N/A   Overcast
5:53 PM 27.0 °F 21.6 °F 23.0 °F 85% 30.27 in 10.0 mi SSE 4.6 mph - N/A   Overcast
6:53 PM 27.0 °F 23.0 °F 25.0 °F 92% 30.27 in 10.0 mi ESE 3.5 mph - N/A   Overcast
7:53 PM 28.0 °F - 23.0 °F 81% 30.27 in 10.0 mi Calm Calm - N/A   Overcast
8:53 PM 27.0 °F - 23.0 °F 85% 30.27 in 10.0 mi Calm Calm - N/A   Overcast
9:53 PM 27.0 °F 21.6 °F 23.0 °F 85% 30.27 in 10.0 mi SE 4.6 mph - N/A   Overcast
10:53 PM 26.1 °F 19.4 °F 23.0 °F 88% 30.27 in 10.0 mi SSE 5.8 mph - N/A   Mostly Cloudy
11:53 PM 24.1 °F 15.2 °F 21.9 °F 91% 30.27 in 10.0 mi SE 8.1 mph - N/A   Clear